BEIDOU-3 M2 (C20)

Last updated on Sat Oct 18 2025 00:03:30 GMT+0000 (Coordinated Universal Time)

1 43002U 17069B 25289.83063061 -.00000008 00000+0 00000+0 0 9992 2 43002 56.4778 71.1497 0005469 349.4604 10.5230 1.86230779 54060
UTC large
Height (km)
Speed (km/s)
/
Latitude / Longitude
Inclination (degrees)
Orbital Period (minutes)
Azimuth
Elevation
Range (km)
Doppler Factor

Next 0 passes for location: London (51.5072 / 0.1276)

Sorry there are no passes over London.